DateTimeUTC,F1_A11,F1_S11,BsB_S11,BsG_S11,BsR_S11,BbsB_S11,BbsG_S11,BbsR_S11,BaB_A11,BaG_A11,BaR_A11,Tu_S11,T_S11,Uu_S11,U_S11,P_S11,T1_A11
2021-10-08T01:00:00Z,00000200,21000000,,,,,,,-000.17,-000.02,-000.20,16.2,23.6,,00.0,0671.0,30.9
2021-10-08T01:01:00Z,00000200,21000000,,,,,,,0000.29,0000.18,0000.39,16.2,23.7,,00.0,0671.0,30.9
2021-10-08T01:02:00Z,00000200,21000000,,,,,,,-000.12,0000.21,-000.37,16.2,23.7,,00.0,0671.0,30.9
2021-10-08T01:03:00Z,00000200,61000000,,,,,,,0000.23,0000.08,0000.38,16.3,23.7,,00.0,0671.0,30.9
2021-10-08T01:04:00Z,00000200,41000000,0000.35,0000.07,0000.21,-000.35,0000.32,-000.16,0000.38,0000.14,0000.20,16.7,23.6,,00.0,0671.9,31.0
2021-10-08T01:05:00Z,00000200,01000000,0000.49,0000.26,-000.24,-000.45,0000.36,-000.07,0000.05,0000.30,-000.03,16.9,23.6,,00.0,0671.9,31.0
2021-10-08T01:06:00Z,00000200,01000000,0000.41,0000.10,0000.26,0000.06,-000.03,-000.04,0000.19,0000.03,0000.28,16.9,23.6,,00.0,0671.9,30.9
2021-10-08T01:07:00Z,00000200,01000000,0000.29,0000.42,0000.40,-000.09,0000.34,0000.19,-000.12,-000.29,-000.35,16.9,23.6,,00.0,0671.9,30.9
2021-10-08T01:08:00Z,00000200,01000000,-000.26,0000.14,0000.16,-000.52,0000.10,-000.04,-000.18,-000.09,-000.26,16.9,23.6,,00.0,0671.9,30.9
2021-10-08T01:09:00Z,00000200,01000000,0000.61,0000.21,0000.22,0000.03,0000.25,-000.29,0000.28,-000.16,0000.27,16.8,23.6,,00.0,0671.9,30.9
2021-10-08T01:10:00Z,00000200,01000000,0000.55,0000.28,0000.10,0000.64,-000.08,-000.02,-000.18,0000.20,-000.26,16.7,23.5,,00.0,0671.9,30.9
2021-10-08T01:11:00Z,00000200,01000000,0000.73,0000.32,-000.03,0000.20,0000.14,-000.06,-000.07,-000.30,-000.02,16.7,23.5,,00.0,0671.9,30.9
2021-10-08T01:12:00Z,00000200,01000000,0000.28,0000.43,0000.10,-000.06,0000.14,-000.28,-000.12,0000.02,0000.04,16.6,23.4,,00.0,0671.9,30.9
2021-10-08T01:13:00Z,00000200,01000000,0000.61,-000.07,0000.31,0000.06,0000.15,-000.06,0000.23,0000.62,0000.36,16.6,23.4,,00.0,0672.0,30.9
2021-10-08T01:14:00Z,00000200,01000000,0000.69,0000.57,0000.37,0000.34,0000.04,-000.06,0005.78,0004.84,0003.62,16.6,23.4,,00.0,0672.0,30.9
2021-10-08T01:15:00Z,00000200,01000000,0000.58,0000.38,0000.41,0000.01,0000.09,0000.03,0009.93,0009.26,0006.64,16.6,23.4,,00.0,0672.0,30.9
2021-10-08T01:16:00Z,00000200,01000000,0001.35,0000.37,0000.23,-000.17,0000.30,0000.12,0006.24,0005.02,0004.40,16.7,23.4,,00.0,0672.0,30.9
2021-10-08T01:17:00Z,00000200,01000000,0001.12,0000.72,0000.31,-000.22,0000.08,0000.06,0008.36,0007.42,0005.34,16.8,23.4,,00.0,0672.0,30.9
2021-10-08T01:18:00Z,00000200,01000000,0000.98,0000.13,0000.04,-000.59,0000.10,0000.25,0004.36,0004.15,0002.90,16.8,23.5,,00.0,0672.0,30.9
2021-10-08T01:19:00Z,00000200,01000000,0000.82,0000.27,0000.40,0000.25,0000.02,0000.15,-000.25,0000.02,0000.07,16.9,23.5,,00.0,0672.0,30.9
2021-10-08T01:20:00Z,00000200,01000000,-000.02,0000.25,0000.21,0000.20,-000.26,-000.01,0000.38,0000.02,0000.05,16.9,23.5,,00.0,0672.0,30.9
2021-10-08T01:21:00Z,00000200,01000000,0001.16,0000.53,0000.44,-000.16,-000.01,-000.02,0000.00,-000.11,-000.25,17.0,23.6,,00.0,0672.0,31.0
2021-10-08T01:22:00Z,00000200,01000000,0001.09,0000.27,0000.08,-000.05,-000.09,0000.09,-000.53,-000.05,-000.13,16.9,23.6,,00.0,0672.0,30.9
2021-10-08T01:23:00Z,00000200,01000000,0000.86,0000.21,0000.15,-000.10,0000.14,0000.02,0000.02,-000.41,0000.19,16.9,23.5,,00.0,0672.0,30.9
2021-10-08T01:24:00Z,00000200,01000000,0000.32,0000.46,0000.15,-000.12,0000.02,0000.09,0000.01,0000.24,-000.42,16.8,23.5,,00.0,0672.0,30.9
2021-10-08T01:25:00Z,00000200,01000000,0000.82,0000.25,0000.42,-000.50,0000.06,0000.07,0000.19,-000.00,0000.55,16.7,23.4,,00.0,0672.0,30.9
2021-10-08T01:26:00Z,00000200,01000000,0000.52,0000.37,0000.20,-000.42,0000.24,-000.07,0001.04,0001.06,0000.69,16.7,23.4,,00.0,0672.0,30.9
2021-10-08T01:27:00Z,00000200,01000000,0000.92,0000.19,0000.33,0000.34,0000.05,0000.00,-000.27,-000.17,-000.34,16.6,23.4,,00.0,0672.0,30.9
2021-10-08T01:28:00Z,00000200,01000000,0000.42,0000.31,0000.03,0000.16,0000.27,-000.15,0000.17,0000.27,0000.49,16.5,23.3,,00.0,0672.0,30.9
2021-10-08T01:29:00Z,00000200,01000000,0001.03,0000.58,0000.07,0000.33,0000.03,0000.40,0000.41,0000.35,0000.26,16.6,23.4,,00.0,0672.0,30.9
2021-10-08T01:30:00Z,00000200,01000000,0000.81,0000.34,0000.07,0000.31,0000.08,-000.15,0000.33,-000.04,-000.14,16.6,23.3,,00.0,0672.0,30.9
2021-10-08T01:31:00Z,00000200,01000000,0000.73,0000.15,0000.06,-000.29,0000.24,0000.02,0000.52,0000.36,0000.22,16.6,23.4,,00.0,0672.0,30.9
2021-10-08T01:32:00Z,00000200,01000000,0000.69,0000.58,0000.11,-000.40,0000.14,0000.07,-000.17,0000.28,0000.39,16.7,23.4,,00.0,0672.0,30.9
2021-10-08T01:33:00Z,00000200,01000000,0000.41,0000.26,0000.10,0000.33,0000.40,-000.08,0000.63,0000.84,0000.07,16.8,23.4,,00.0,0672.0,30.9
2021-10-08T01:34:00Z,00000200,01000000,0001.04,0000.32,0000.21,-000.25,0000.17,-000.02,-000.07,-000.29,0000.11,16.8,23.5,,00.0,0672.0,30.9
2021-10-08T01:35:00Z,00000200,01000000,0000.59,0000.44,0000.08,0000.35,0000.12,-000.37,0000.25,0000.24,0000.16,16.9,23.5,,00.0,0672.0,30.9
2021-10-08T01:36:00Z,00000200,01000000,0001.10,0000.08,0000.39,0000.72,0000.40,0000.05,0000.12,-000.02,0000.17,17.0,23.6,,00.0,0672.0,30.9
2021-10-08T01:37:00Z,00000200,01000000,0000.14,0000.33,0000.35,0000.06,0000.26,0000.16,-000.48,-000.17,-000.25,17.0,23.5,,00.0,0672.0,30.9
2021-10-08T01:38:00Z,00000200,01000000,0000.90,0000.43,0000.39,-000.21,0000.31,-000.30,0000.12,-000.19,-000.04,16.9,23.5,,00.0,0672.0,30.9
2021-10-08T01:39:00Z,00000200,01000000,-000.05,0000.35,0000.39,0000.45,0000.29,-000.06,0000.31,-000.02,-000.18,16.8,23.5,,00.0,0672.0,30.9
2021-10-08T01:40:00Z,00000200,01000000,0001.15,0000.16,0000.32,-000.04,0000.26,-000.31,-000.17,-000.12,-000.11,16.7,23.4,,00.0,0672.0,30.9
2021-10-08T01:41:00Z,00000200,01000000,-000.04,0000.32,0000.07,0000.32,0000.24,-000.09,-000.09,-000.10,-000.07,16.7,23.4,,00.0,0672.0,30.9
2021-10-08T01:42:00Z,00000200,01000000,0000.19,0000.75,0000.25,-000.06,-000.12,-000.14,0000.41,0000.57,0000.42,16.6,23.4,,00.0,0672.0,30.9
2021-10-08T01:43:00Z,00000200,01000000,0001.02,0000.40,0000.17,0000.43,-000.10,-000.08,0000.36,0000.33,0000.53,16.6,23.3,,00.0,0672.0,30.9
2021-10-08T01:44:00Z,00000200,01000000,0000.52,0000.23,0000.23,-000.31,0000.16,0000.11,0000.48,0000.29,0000.16,16.6,23.3,,00.0,0672.0,30.9
2021-10-08T01:45:00Z,00000200,01000000,0000.29,0000.43,0000.26,-000.68,0000.28,-000.20,-000.25,0000.22,0000.20,16.6,23.3,,00.0,0672.0,30.9
2021-10-08T01:46:00Z,00000200,01000000,0000.49,0000.34,0000.18,0000.19,0000.25,-000.06,0000.14,0000.19,-000.18,16.7,23.3,,00.0,0672.0,30.9
2021-10-08T01:47:00Z,00000200,01000000,0000.22,0000.17,0000.00,-000.51,0000.02,-000.05,-000.01,-000.01,0000.28,16.7,23.4,,00.0,0672.0,30.9
2021-10-08T01:48:00Z,00000200,01000000,0000.51,0000.54,0000.70,0000.52,0000.34,0000.14,0007.82,0007.57,0005.54,16.8,23.4,00.1,00.0,0672.0,30.9
2021-10-08T01:49:00Z,00000200,01000000,0000.62,0000.17,0000.20,-000.61,0000.16,-000.31,-004.61,-004.56,-003.43,16.9,23.5,00.1,00.1,0672.0,30.9
2021-10-08T01:50:00Z,00000200,01000000,0000.67,0000.34,0000.03,0000.08,-000.12,-000.06,-000.32,-000.63,-000.27,16.9,23.5,,00.0,0672.0,30.9
2021-10-08T01:51:00Z,00000200,01000000,0001.27,0000.30,-000.15,0000.09,0000.10,-000.38,-000.50,-000.34,-000.13,17.0,23.5,,00.0,0672.0,30.9
2021-10-08T01:52:00Z,00000200,01000000,0000.77,0000.54,0000.35,0000.03,0000.34,-000.01,-000.37,-000.53,-000.47,16.9,23.5,,00.0,0672.0,30.9
2021-10-08T01:53:00Z,00000200,01000000,0000.83,0000.11,0000.33,0000.34,-000.16,-000.07,-000.01,0000.36,0000.22,16.8,23.5,,00.0,0672.0,30.9
2021-10-08T01:54:00Z,00000200,01000000,0000.84,0000.20,0000.13,0000.54,-000.04,0000.02,-000.17,-000.24,-000.07,16.7,23.4,,00.0,0672.0,30.9
2021-10-08T01:55:00Z,00000200,01000000,0000.28,0000.28,0000.12,-000.07,0000.28,0000.23,-000.18,0000.10,-000.12,16.7,23.4,,00.0,0672.0,30.9
2021-10-08T01:56:00Z,00000200,01000000,0000.60,0000.21,0000.14,-000.27,0000.34,-000.11,0000.27,-000.05,0000.23,16.6,23.4,,00.0,0672.0,30.9
2021-10-08T01:57:00Z,00000200,41000000,,,,,,,0000.17,0000.03,-000.16,16.7,23.4,,00.0,0672.1,30.8
2021-10-08T01:58:00Z,00000200,61000000,,,,,,,0000.12,0000.39,0000.29,16.2,23.5,,00.0,0671.0,30.8
2021-10-08T01:59:00Z,00000200,21000000,,,,,,,0000.15,-000.04,0000.02,16.2,23.6,,00.0,0671.0,30.9
